[[{"header":{"parameterUnit":"m.s-1","parameterCategory":1,"la1":30.2991,"la2":30.254,"lo1":-89.0895,"lo2":-89.0444,"dy":0.0017,"dx":0.0017,"nx":28,"ny":28,"refTime":"2024-03-31T03:00:00:Z","depth":0,"parameterNumber":2,"parameterNumberName":"U-component_of_WINDS"},"data":[0,0,0,0,0,0,0,0,0,0,0,0,0,0,0,0,0,0,0,0,0,0,0,0,0,0,0,0,0,0,0,0,0,0,0,0,0,0,0,0,0,0,0,0,0,0,0,0,0,0,0,0,0,0,0,0,0,0,-2.9251,-2.9252,0,-2.9314,-2.9315,-2.9315,-2.9297,-2.9296,-2.9295,-2.9293,-2.9356,-2.9359,-2.9361,0,0,0,0,0,0,0,0,0,0,0,0,0,-2.9117,-2.9119,-2.9251,-2.9252,-2.9253,-2.9314,-2.9315,-2.9315,-2.9297,-2.9296,-2.9294,-2.9293,-2.9355,-2.9358,-2.9362,0,0,0,0,0,0,0,0,0,0,0,0,0,-2.9177,-2.912,-2.9251,-2.9251,-2.9252,-2.9314,-2.9315,-2.9316,-2.9298,-2.9296,-2.9294,-2.9292,-2.9354,-2.9358,-2.9362,-2.9427,0,0,-2.9375,-2.9377,0,0,0,0,0,0,0,0,-2.9173,-2.9182,-2.9251,-2.9251,-2.9252,-2.9296,-2.929,-2.9353,-2.9298,-2.928,-2.9293,-2.9291,-2.9337,-2.9343,-2.9359,-2.943,-2.9432,-2.9376,-2.9378,-2.938,-2.9381,0,0,0,0,0,0,0,-2.9169,-2.9179,-2.9276,-2.9252,-2.9253,-2.9248,-2.9255,-2.9302,-2.9319,-2.9282,-2.9281,-2.9288,-2.9337,-2.9355,-2.936,-2.9433,-2.9375,-2.9379,-2.9382,-2.9383,-2.9561,-2.9563,0,0,0,0,0,0,-2.9165,-2.9176,-2.9274,-2.9278,-2.9207,-2.9252,-2.9259,-2.9284,-2.9318,-2.9322,-2.929,-2.9287,-2.9348,-2.9355,-2.9362,-2.944,-2.938,-2.9384,-2.9386,-2.9559,-2.9562,-2.9564,0,0,0,0,0,0,-2.9162,-2.9173,-2.9272,-2.9227,-2.9239,-2.9257,-2.9284,-2.9286,-2.9303,-2.9324,-2.9327,-2.9304,-2.9347,-2.9356,-2.9411,-2.9442,-2.9386,-2.939,-2.9557,-2.956,-2.9563,-2.9596,0,0,0,0,0,0,-2.9158,-2.9173,-2.9197,-2.9227,-2.9241,-2.9319,-2.9286,-2.9289,-2.9311,-2.9308,-2.9339,-2.9342,-2.9346,-2.9405,-2.9415,-2.9446,-2.9393,-2.9554,-2.9558,-2.9562,-2.9592,-2.96,-2.9606,0,0,0,0,0,-2.9153,-2.9203,-2.9198,-2.921,-2.9272,-2.9321,-2.9329,-2.9333,-2.9313,-2.9338,-2.9352,-2.9341,-2.9437,-2.9411,-2.9422,-2.9455,-2.9552,-2.9557,-2.9562,-2.9589,-2.9598,-2.9606,0,0,0,0,0,0,-2.9175,-2.9207,-2.9202,-2.9264,-2.929,-2.9318,-2.9349,-2.9343,-2.9375,-2.9371,-2.9375,-2.9382,-2.9439,-2.9453,-2.9423,-2.952,-2.9492,-2.9499,-2.9508,-2.9517,-2.9524,-2.9519,-2.9397,0,0,0,0,0,-2.9188,-2.9225,-2.9251,-2.9303,-2.9316,-2.9331,-2.9352,-2.9354,-2.9381,-2.9392,-2.941,-2.9436,-2.9473,-2.9496,-2.9531,-2.9595,-2.9601,-2.9624,-2.9631,-2.9637,-2.9642,-2.9677,-2.9687,-2.958,-2.958,-2.958,0,0,-2.9213,-2.9235,-2.9258,-2.9308,-2.9328,-2.9367,-2.934,-2.9382,-2.941,-2.9398,-2.9451,-2.9465,-2.9495,-2.9555,-2.9583,-2.9569,-2.9674,-2.9643,-2.9647,-2.965,-2.9683,-2.9693,-2.9702,-2.9584,-2.9583,-2.9582,0,0,-2.9278,-2.9299,-2.9344,-2.9366,-2.9398,-2.9408,-2.9419,-2.9449,-2.9458,-2.9512,-2.9503,-2.9538,-2.96,-2.9622,-2.9641,-2.9718,-2.9708,-2.9729,-2.9765,-2.98,-2.9808,-2.9815,-2.9841,-2.9851,-2.9735,-2.9735,-2.9735,0,-2.9304,-2.9362,-2.9368,-2.9411,-2.9433,-2.9425,-2.9471,-2.9492,-2.9534,-2.9549,-2.9534,-2.9613,-2.9633,-2.9697,-2.9716,-2.9733,-2.9745,-2.9724,-2.9806,-2.9814,-2.9821,-2.9846,-2.9856,-2.9737,-2.9737,-2.9737,-2.9737,0,-2.9393,-2.9434,-2.9467,-2.9508,-2.9534,-2.9578,-2.9591,-2.9617,-2.9617,-2.9628,-2.9683,-2.9708,-2.9747,-2.9763,-2.9763,-2.9829,-2.9819,-2.9805,-2.9776,-2.9833,-2.9857,-2.9866,-2.974,-2.974,-2.9739,-2.9738,0,0,-2.9471,-2.9516,-2.9528,-2.9547,-2.9583,-2.9614,-2.9659,-2.9698,-2.972,-2.975,-2.9787,-2.9841,-2.9829,-2.9851,-2.9854,-2.9885,-2.9943,-2.9867,-2.9868,-2.9879,-3.0016,-3.0024,-3.0035,-2.9938,-2.994,-2.9942,-3.0013,0,-2.9538,-2.9615,-2.9623,-2.9693,-2.973,-2.9725,-2.9764,-2.979,-2.9803,-2.9837,-2.9851,-2.9889,-2.9871,-2.9884,-2.9914,-2.9929,-2.997,-2.9925,-2.9971,-2.9973,-2.9961,-3.0047,-3.0056,-3.0122,-3.0022,-3.0024,-3.0025,0,-2.9625,-2.9658,-2.9732,-2.9763,-2.9779,-2.9814,-2.9851,-2.9884,-2.9914,-2.9921,-2.9948,-2.9947,-2.9993,-2.9965,-3.0028,-2.9997,-3.0017,-3.0028,-3.0031,-3.0033,-3.0,-3.005,-3.0143,-3.0152,-3.0039,-3.0038,-3.0037,0,-2.9672,-2.9736,-2.9788,-2.9804,-2.9843,-2.9868,-2.9885,-2.9914,-2.9937,-2.997,-2.9986,-3.0024,-3.0044,-3.0074,-3.0083,-3.0062,-3.0146,-3.0119,-3.0153,-3.0152,-3.0168,-3.0166,-3.0263,-3.0185,-3.0185,-3.0185,-3.0184,0,-2.9745,-2.9789,-2.981,-2.9841,-2.9892,-2.9901,-2.9951,-2.9967,-2.9993,-3.0028,-3.0027,-3.006,-3.0072,-3.0107,-3.0116,-3.0166,-3.0176,-3.0183,-3.0184,-3.0181,-3.018,-3.0192,-3.0187,-3.0187,-3.0187,-3.0186,-3.0186,0,-2.9804,-2.982,-2.9876,-2.9909,-2.9919,-2.9954,-2.9982,-3.0013,-3.0027,-3.0071,-3.0082,-3.0103,-3.0145,-3.0159,-3.0209,-3.0214,-3.0273,-3.0271,-3.0262,-3.0262,-3.0295,-3.0291,-3.04,-3.0415,-3.0329,-3.033,-3.0331,0,-2.9848,-2.9883,-2.992,-2.9944,-2.9962,-3.0,-3.0025,-3.0036,-3.0062,-3.01,-3.0126,-3.0168,-3.0201,-3.0268,-3.0287,-3.0326,-3.0324,-3.036,-3.0329,-3.0326,-3.0322,-3.0319,-3.0322,-3.0364,-3.0365,-3.0366,-3.0367,0,-2.9924,-2.9931,-2.9966,-3.0005,-3.0034,-3.0065,-3.0095,-3.0115,-3.0131,-3.016,-3.0202,-3.0228,-3.028,-3.0321,-3.0361,-3.0379,-3.0375,-3.0377,-3.0386,-3.0383,-3.0375,-3.0378,-3.0276,-3.0373,-3.0373,-3.0372,-3.0372,-3.0371,-2.9976,-3.0007,-3.0038,-3.0078,-3.0102,-3.013,-3.0161,-3.0179,-3.0215,-3.0258,-3.0263,-3.0309,-3.034,-3.0393,-3.0414,-3.045,-3.0439,-3.0454,-3.0457,-3.046,-3.0461,-3.0372,-3.0457,-3.0457,-3.0457,-3.0457,-3.0457,0,-3.0051,-3.0071,-3.0108,-3.015,-3.0182,-3.0178,-3.0211,-3.0237,-3.0278,-3.0307,-3.0341,-3.039,-3.0431,-3.0455,-3.0495,-3.0519,-3.0519,-3.0529,-3.0526,-3.053,-3.0469,-3.0456,-3.0529,-3.0529,-3.0529,-3.0529,-3.0529,-3.0529,-3.0093,-3.0144,-3.0154,-3.0218,-3.0238,-3.0283,-3.0303,-3.0329,-3.0353,-3.0408,-3.0442,-3.0458,-3.0485,-3.0528,-3.0565,-3.0571,-3.0585,-3.0596,-3.0601,-3.0542,-3.0535,-3.0527,-3.0515,-3.06,-3.06,-3.0659,-3.066,-3.066]},{"header":{"parameterUnit":"m.s-1","parameterCategory":1,"la1":30.2991,"la2":30.254,"lo1":-89.0895,"lo2":-89.0444,"dy":0.0017,"dx":0.0017,"nx":28,"ny":28,"refTime":"2024-03-31T03:00:00:Z","depth":0,"parameterNumber":3,"parameterNumberName":"V-component_of_WINDS"},"data":[0,0,0,0,0,0,0,0,0,0,0,0,0,0,0,0,0,0,0,0,0,0,0,0,0,0,0,0,0,0,0,0,0,0,0,0,0,0,0,0,0,0,0,0,0,0,0,0,0,0,0,0,0,0,0,0,0,0,3.6246,3.6245,0,3.6207,3.6206,3.6206,3.624,3.6241,3.6243,3.6244,3.62,3.6197,3.6195,0,0,0,0,0,0,0,0,0,0,0,0,0,3.6346,3.6344,3.6246,3.6245,3.6245,3.6207,3.6206,3.6206,3.6239,3.6241,3.6243,3.6245,3.6201,3.6198,3.6195,0,0,0,0,0,0,0,0,0,0,0,0,0,3.6304,3.6343,3.6246,3.6257,3.6258,3.6207,3.6206,3.6206,3.6239,3.6241,3.6243,3.6245,3.6201,3.6198,3.6194,3.6129,0,0,3.6183,3.6181,0,0,0,0,0,0,0,0,3.6306,3.63,3.6256,3.6256,3.6257,3.623,3.6226,3.618,3.6239,3.6246,3.6244,3.6246,3.6208,3.6204,3.6192,3.6127,3.6125,3.6183,3.618,3.6179,3.6178,0,0,0,0,0,0,0,3.6309,3.6302,3.623,3.6255,3.6256,3.6263,3.6259,3.6217,3.6215,3.6245,3.6248,3.6243,3.6209,3.6195,3.6191,3.6125,3.6183,3.6179,3.6177,3.6176,3.6007,3.6005,0,0,0,0,0,0,3.6311,3.6304,3.6231,3.6229,3.6287,3.626,3.6256,3.6237,3.6216,3.6215,3.6241,3.6245,3.6201,3.6195,3.619,3.6114,3.6179,3.6175,3.6173,3.6009,3.6007,3.6004,0,0,0,0,0,0,3.6313,3.6305,3.6233,3.6267,3.6259,3.6256,3.6234,3.6235,3.6222,3.6213,3.6213,3.6228,3.6202,3.6195,3.6145,3.6113,3.6174,3.617,3.6012,3.6009,3.6006,3.5961,0,0,0,0,0,0,3.6316,3.6305,3.6281,3.6267,3.6257,3.619,3.6232,3.6232,3.6216,3.622,3.6201,3.6199,3.6203,3.615,3.6141,3.6109,3.6167,3.6015,3.6011,3.6007,3.5966,3.5957,3.595,0,0,0,0,0,3.632,3.6268,3.6279,3.627,3.6227,3.6188,3.6182,3.6189,3.6213,3.6188,3.6183,3.62,3.6118,3.6145,3.6135,3.6101,3.6017,3.6012,3.6007,3.5969,3.5959,3.595,0,0,0,0,0,0,3.6277,3.6267,3.6279,3.6222,3.6206,3.6193,3.6163,3.6177,3.6152,3.6157,3.6165,3.616,3.6108,3.6099,3.613,3.6038,3.6071,3.6064,3.6046,3.6036,3.6028,3.6032,3.6164,0,0,0,0,0,3.6261,3.6231,3.6223,3.6174,3.6165,3.6165,3.6148,3.6155,3.6138,3.6131,3.6122,3.6104,3.6074,3.6054,3.6026,3.5965,3.5962,3.5936,3.5928,3.5922,3.5916,3.5884,3.5874,3.5988,3.5988,3.5988,0,0,3.6227,3.6218,3.6198,3.6165,3.6153,3.6122,3.6159,3.6124,3.6101,3.6125,3.6079,3.6071,3.6052,3.5996,3.5971,3.5987,3.5884,3.5915,3.591,3.5908,3.5878,3.5867,3.5858,3.5984,3.5985,3.5986,0,0,3.6151,3.614,3.6099,3.6087,3.607,3.6071,3.6061,3.6047,3.6044,3.5998,3.6017,3.5988,3.5936,3.5923,3.5909,3.5829,3.5844,3.582,3.5777,3.5747,3.5738,3.573,3.5703,3.5694,3.5813,3.5813,3.5813,0,3.6111,3.6065,3.6075,3.604,3.6025,3.6048,3.6007,3.5994,3.5968,3.5957,3.5976,3.5913,3.5901,3.5844,3.5825,3.5812,3.5802,3.5822,3.5739,3.5731,3.5724,3.5698,3.5688,3.5811,3.5811,3.5811,3.5811,0,3.6018,3.5987,3.5955,3.5932,3.5914,3.5875,3.5879,3.5859,3.5867,3.5866,3.5819,3.5806,3.5777,3.5764,3.5771,3.5708,3.5719,3.5738,3.5771,3.571,3.5686,3.5677,3.5807,3.5808,3.5808,3.5809,0,0,3.5912,3.5898,3.5886,3.5877,3.5861,3.5836,3.5799,3.5772,3.5756,3.5737,3.5706,3.5663,3.5682,3.5666,3.5672,3.5645,3.5585,3.5667,3.5667,3.5654,3.5517,3.5504,3.5492,3.5595,3.5593,3.5591,3.5519,0,3.5837,3.5774,3.5783,3.5722,3.5694,3.5717,3.5684,3.5671,3.5669,3.5644,3.5641,3.5611,3.5637,3.5628,3.5602,3.5598,3.5558,3.5603,3.5567,3.5565,3.5572,3.548,3.5465,3.5398,3.551,3.5508,3.5507,0,3.574,3.5721,3.5658,3.5649,3.5637,3.5608,3.5586,3.5562,3.5547,3.5548,3.5531,3.5543,3.5505,3.5539,3.5488,3.5519,3.5504,3.55,3.5497,3.5495,3.5533,3.5476,3.5376,3.5367,3.5492,3.5493,3.5495,0,3.5672,3.563,3.5588,3.5579,3.5566,3.5546,3.5539,3.5527,3.5511,3.5491,3.5481,3.5456,3.5443,3.5423,3.5427,3.5451,3.5376,3.5409,3.5375,3.5375,3.5359,3.536,3.5256,3.5347,3.5347,3.5348,3.5348,0,3.5587,3.5549,3.5558,3.5532,3.5489,3.55,3.5457,3.5453,3.5442,3.5415,3.5432,3.5406,3.5413,3.5388,3.539,3.5349,3.5342,3.5342,3.5343,3.5341,3.5341,3.5332,3.5338,3.5345,3.5345,3.5346,3.5346,0,3.5504,3.5509,3.5465,3.5457,3.5455,3.5424,3.5417,3.5393,3.5393,3.5359,3.5352,3.5351,3.5323,3.5325,3.5292,3.5294,3.5243,3.5249,3.5249,3.525,3.5217,3.5221,3.5105,3.5091,3.519,3.5189,3.5188,0,3.5451,3.5422,3.5413,3.5397,3.539,3.5364,3.5349,3.5358,3.5342,3.5324,3.5302,3.5275,3.5255,3.5208,3.5204,3.5179,3.5185,3.5147,3.5182,3.5181,3.5187,3.5189,3.5187,3.514,3.5139,3.5138,3.5137,0,3.5356,3.5361,3.5339,3.5319,3.5301,3.5285,3.5271,3.5257,3.5264,3.5245,3.5217,3.5201,3.5169,3.5143,3.5119,3.5112,3.5126,3.5126,3.5117,3.5116,3.5117,3.5118,3.5231,3.5129,3.513,3.513,3.5131,3.5131,3.5287,3.5264,3.5255,3.5231,3.5221,3.5208,3.5186,3.5184,3.5161,3.5138,3.5144,3.5113,3.51,3.5071,3.5061,3.5036,3.505,3.5037,3.5033,3.503,3.5028,3.5121,3.5031,3.5032,3.5032,3.5032,3.5032,0,3.5196,3.5191,3.5169,3.515,3.5131,3.5148,3.5133,3.5116,3.5089,3.5077,3.5057,3.5026,3.5001,3.4996,3.4972,3.4953,3.4959,3.4946,3.4949,3.4947,3.5016,3.5027,3.4942,3.4942,3.4942,3.4942,3.4942,3.4942,3.5146,3.5108,3.5111,3.5068,3.5064,3.5035,3.5026,3.5014,3.5004,3.4969,3.4949,3.4947,3.4938,3.4913,3.4891,3.489,3.4881,3.4867,3.4868,3.4933,3.4942,3.495,3.4961,3.4864,3.4864,3.4802,3.4801,3.4801]}]]